Location: downtown San Diego
(32.7310°N, 117.1990°W)
Time: 06:44:24
(UTC-07:00)

Cosmos 1455 - Pass Details

Date: 12 July 2018
Orbit: 500 x 526 km, 82.5° (Epoch: 24 September)

Event Time Altitude Azimuth Distance (km) Brightness Sun altitude
Rises 21:16:03 0° 349° (NNW) 2,650 6.6 -14.5°
Reaches altitude 10° 21:18:13 10° 345° (NNW) 1,761 5.7 -14.9°
Maximum altitude 21:22:01 59° 266° (W) 609 2.7 -15.5°
Enters shadow 21:25:19 13° 188° (S) 1,554 4.3 -16.0°
